sat.trackr.live / text

‹ back to catalog

STARLINK-1548

NORAD 46054 · 2020-055AD

PAYLOAD ACTIVE UNKNOWN

§ Identity

Operator
Country
US
Launch date
2020-08-07
Launch site
AFETR
Launch vehicle
Mass (kg)
RCS (m²)

Purposes: comms

External: N2YO · Heavens-Above · Gunter

§ Orbital elements

Epoch: 2026-09-15T21:00:32.934816Z

Period
94.01 min
Inclination
53.1598°
Eccentricity
0.0001023
Mean motion
15.31707597 rev/d
Perigee alt
470.0 km
Apogee alt
471.4 km
Semi-major
6,848.9 km
B*
-1.7642e-7
RAAN
309.0076°
Arg perigee
100.1413°
Mean anomaly
259.9704°
Rev number
33,821

§ Raw data

STARLINK-15481 46054U 20055AD  26258.87538119 -.00000370  00000+0 -17642-6 0  99932 46054  53.1598 309.0076 0001023 100.1413 259.9704 15.31707597338211

JSON: /api/v1/satellites/46054 · /tle

For live sub-satellite position, see the globe view (requires WebGL).

§ Visibility from observer

Set your observer location to see the next 7 days of passes ≥ 10°. The values pass through the URL so the page stays shareable.

No JS? Fill the form by hand. The geolocation button needs JavaScript.